Hourly Data Report for October 21, 2013

All times are specified in Local Standard Time (LST). Add 1 hour to adjust for Daylight Saving Time where and when it is observed.

PANGNIRTUNG
NUNAVUT

66°08'36.300" N
65°42'40.500" W
22.60 m
2403049
71826
WXP

Download Data

Hourly Data (October 2013)
Hourly Data Report for October 21, 2013
Temp Definition
°C
Dew Point Temp Definition
°C
Rel Hum Definition
%
Wind Dir Definition
10's deg

Wind Spd Definition
km/h
Visibility Definition
km
Stn Press Definition
kPa
Hmdx Definition


Wind Chill Definition


Weather Definition


TIME
00:00 1.4 1.3 99   0   101.44     LegendNANA
01:00 0.8 0.7 99 13 4   101.44     LegendNANA
02:00 0.5 0.5 100 10 4   101.43     LegendNANA
03:00 0.4 0.4 100 9 7   101.42     LegendNANA
04:00 0.1 0.1 100 11 6   101.42     LegendNANA
05:00 -0.1 -0.1 100 9 4   101.40   -1 LegendNANA
06:00 -0.1 -0.1 100 11 2   101.41   -1 LegendNANA
07:00 -0.3 -0.3 100   0   101.43     LegendNANA
08:00 0.0 0.0 100   0   101.44     LegendNANA
09:00 0.3 0.3 100   0   101.43     LegendNANA
10:00 0.4 0.4 100 12 2   101.45     LegendNANA
11:00 0.8 0.8 100 7 4   101.44     LegendNANA
12:00 1.0 1.0 100 4 4   101.42     LegendNANA
13:00 1.0 1.0 100 25 4   101.44     LegendNANA
14:00 0.9 0.9 100 25 2   101.45     LegendNANA
15:00 1.7 0.8 94 9 7   101.47     LegendNANA
16:00 1.8 -0.9 82 7 6   101.47     LegendNANA
17:00 1.9 -1.1 80 6 4   101.46     LegendNANA
18:00 1.9 -1.6 78 6 4   101.44     LegendNANA
19:00 2.0 -1.5 78 5 6   101.44     LegendNANA
20:00 1.9 -1.7 77 5 6   101.44     LegendNANA
21:00 2.0 -1.7 76 8 4   101.44     LegendNANA
22:00 1.9 -1.7 77 8 7   101.42     LegendNANA
23:00 1.8 -1.9 76 8 7   101.41     LegendNANA

Notes on Data Quality.

Legend

  • E = Estimated
  • M = Missing
  • NA = Not Available
  • ‡ = Partner data that is not subject to review by the National Climate Archives
Date modified: